Torna al catalogo

STARLINK-34814

AttivoComunicazioniVLEO
NORAD 65100·PAYLOAD·🇺🇸 United States

Lanciato Aug 4, 2025 da Cape Canaveral Space Force Station

Loading…

Prossimi Passaggi (prossime 24 ore)

TLE

AggiornatoSource: CelesTrak SupGP

Epoca: Sep 15, 2026, 03:49 UTC

1 65100C 25167Y   26258.15951389 -.00063565  00000+0 -18782-2 0  2589
2 65100  53.1577 222.5623 0001326  86.4363 334.1266 15.34419178    15

Traccia STARLINK-34814 in tempo reale con AllMySat

Download on the App Store